Sanford, ME

7:52 PM EDT on April 28, 2017 (GMT -0400)
Sanford Regional

Weather History for KSFM - February, 2013

Change the Weather History Date:

Tuesday, February 19, 2013

  Actual Average Record
Temperature  
Mean Temperature 30 °F -  
Max Temperature 41 °F 33 °F 55 °F (2017)
Min Temperature 19 °F 14 °F -2 °F (2001)
Degree Days  
Heating Degree Days 35    
Moisture  
Dew Point 12 °F    
Average Humidity 49    
Maximum Humidity 100    
Minimum Humidity 24    
Precipitation  
Precipitation 0.34 in - - ()
Sea Level Pressure  
Sea Level Pressure 29.93 in    
Wind  
Wind Speed 8 mph (South)    
Max Wind Speed 16 mph    
Max Gust Speed 24 mph    
Visibility 9 miles    
Events      
Averages and records for this station are not official NWS values.
T = Trace of Precipitation, MM = Missing Value Source: NWS Daily Summary

Daily Weather History Graph

Daily Weather History Graph

Search for Another Location

Airport or City:

Trip Planner

Search our weather history database for the weather conditions in past years. The results will help you decide how hot, cold, wet, or windy it might be!

Date:

Astronomy

Feb. 19, 2013 Rise Set
Actual Time 6:34 AM EST 5:19 PM EST
Civil Twilight 6:05 AM EST 5:48 PM EST
Nautical Twilight 5:32 AM EST 6:21 PM EST
Astronomical Twilight 4:59 AM EST 6:54 PM EST
Moon 11:42 AM EST (2/19) 2:09 AM EST (2/19)
Length of Visible Light 11h 42m
Length of Day
10h 44m
Waxing Gibbous, 67% of the Moon is Illuminated
Feb 19
Waxing Gibbous
Feb 25
Full
Mar 4
Last Quarter
Mar 11
New
Mar 19
First Quarter

Hourly Weather History & Observations

Time (EST) Temp. Windchill Dew Point Humidity Pressure Visibility Wind Dir Wind Speed Gust Speed Precip Events Conditions
12:15 AM 19.4 °F 10.4 °F -7.6 °F 30% 30.06 in 10.0 mi SW 6.9 mph - N/A   Clear
12:35 AM 19.4 °F 8.6 °F -5.8 °F 33% 30.06 in 10.0 mi SW 9.2 mph - N/A   Clear
12:55 AM 19.4 °F 7.2 °F -5.8 °F 33% 30.06 in 10.0 mi WSW 11.5 mph - N/A   Clear
1:15 AM 19.4 °F 6.6 °F -5.8 °F 33% 30.06 in 10.0 mi WSW 12.7 mph - N/A   Clear
1:35 AM 19.4 °F 6.0 °F -4.0 °F 36% 30.07 in 10.0 mi WSW 13.8 mph 17.3 mph N/A   Clear
1:55 AM 19.4 °F 7.2 °F -5.8 °F 33% 30.07 in 10.0 mi WSW 11.5 mph 18.4 mph N/A   Clear
2:15 AM 19.4 °F 6.0 °F -4.0 °F 36% 30.08 in 10.0 mi WSW 13.8 mph - N/A   Clear
2:35 AM 21.2 °F 8.9 °F -5.8 °F 30% 30.07 in 10.0 mi WSW 12.7 mph 21.9 mph N/A   Mostly Cloudy
2:55 AM 23.0 °F 14.7 °F -5.8 °F 28% 30.07 in 10.0 mi West 6.9 mph - N/A   Overcast
3:15 AM 23.0 °F 12.4 °F -7.6 °F 26% 30.08 in 10.0 mi West 10.4 mph 16.1 mph N/A   Overcast
3:35 AM 23.0 °F 9.6 °F -5.8 °F 28% 30.08 in 10.0 mi West 16.1 mph 24.2 mph N/A   Overcast
3:55 AM 24.8 °F 11.9 °F -5.8 °F 26% 30.07 in 10.0 mi West 16.1 mph 20.7 mph N/A   Overcast
4:15 AM 24.8 °F 11.9 °F -5.8 °F 26% 30.08 in 10.0 mi West 16.1 mph - N/A   Overcast
4:35 AM 24.8 °F 11.9 °F -5.8 °F 26% 30.08 in 10.0 mi West 16.1 mph 21.9 mph N/A   Overcast
4:55 AM 24.8 °F 13.4 °F -4.0 °F 28% 30.08 in 10.0 mi West 12.7 mph - N/A   Mostly Cloudy
5:35 AM 24.8 °F 16.1 °F -5.8 °F 26% 30.08 in 10.0 mi West 8.1 mph - N/A   Mostly Cloudy
5:55 AM 24.8 °F 19.1 °F -7.6 °F 24% 30.07 in 10.0 mi WNW 4.6 mph - N/A   Partly Cloudy
6:15 AM 23.0 °F - -5.8 °F 28% 30.06 in 10.0 mi Calm Calm - N/A   Clear
6:55 AM 19.4 °F - 5.0 °F 54% 30.06 in 10.0 mi Calm Calm - N/A   Mostly Cloudy
7:35 AM 23.0 °F - -0.4 °F 36% 30.07 in 10.0 mi Calm Calm - N/A   Mostly Cloudy
7:55 AM 24.8 °F 17.9 °F -2.2 °F 31% 30.07 in 10.0 mi SSE 5.8 mph - N/A   Partly Cloudy
8:15 AM 26.6 °F 20.0 °F -4.0 °F 26% 30.07 in 10.0 mi SW 5.8 mph - N/A   Partly Cloudy
8:35 AM 26.6 °F 22.6 °F -0.4 °F 31% 30.07 in 10.0 mi South 3.5 mph - N/A   Partly Cloudy
8:55 AM 28.4 °F 23.3 °F -2.2 °F 27% 30.07 in 10.0 mi SW 4.6 mph - N/A   Partly Cloudy
9:15 AM 28.4 °F 24.6 °F -2.2 °F 27% 30.06 in 10.0 mi SW 3.5 mph - N/A   Mostly Cloudy
9:35 AM 30.2 °F 26.7 °F -0.4 °F 27% 30.06 in 10.0 mi South 3.5 mph - N/A   Overcast
9:55 AM 30.2 °F 23.4 °F -0.4 °F 27% 30.06 in 10.0 mi SSW 6.9 mph - N/A   Overcast
10:35 AM 32.0 °F 28.7 °F 1.4 °F 27% 30.06 in 10.0 mi SSW 3.5 mph - N/A   Overcast
10:55 AM 35.6 °F - 1.4 °F 24% 30.05 in 10.0 mi Calm Calm - N/A   Scattered Clouds
11:15 AM 35.6 °F 31.7 °F 3.2 °F 26% 30.03 in 10.0 mi South 4.6 mph - N/A   Clear
11:35 AM 35.6 °F - 5.0 °F 28% 30.03 in 10.0 mi Calm Calm - N/A   Clear
11:55 AM 37.4 °F 34.9 °F 6.8 °F 28% 30.02 in 10.0 mi South 3.5 mph - N/A   Clear
12:15 PM 37.4 °F 32.8 °F 6.8 °F 28% 30.00 in 10.0 mi South 5.8 mph - N/A   Clear
12:35 PM 37.4 °F 32.8 °F 6.8 °F 28% 29.99 in 10.0 mi SE 5.8 mph - N/A   Clear
1:15 PM 35.6 °F 29.2 °F 12.2 °F 38% 29.97 in 10.0 mi East 8.1 mph - N/A   Clear
1:35 PM 35.6 °F 30.7 °F 14.0 °F 41% 29.96 in 10.0 mi East 5.8 mph - N/A   Clear
1:55 PM 35.6 °F 31.7 °F 15.8 °F 44% 29.95 in 10.0 mi East 4.6 mph - N/A   Clear
2:15 PM 37.4 °F 32.1 °F 15.8 °F 41% 29.95 in 10.0 mi SE 6.9 mph - N/A   Clear
2:35 PM 37.4 °F 31.4 °F 17.6 °F 45% 29.94 in 10.0 mi SE 8.1 mph - N/A   Clear
3:15 PM 35.6 °F 32.8 °F 24.8 °F 65% 29.92 in 10.0 mi SE 3.5 mph - N/A   Mostly Cloudy
3:35 PM 35.6 °F 31.7 °F 26.6 °F 70% 29.90 in 10.0 mi East 4.6 mph - N/A   Overcast
3:55 PM 35.6 °F 31.7 °F 26.6 °F 70% 29.88 in 10.0 mi East 4.6 mph - N/A   Overcast
4:15 PM 35.6 °F 31.7 °F 28.4 °F 75% 29.86 in 10.0 mi East 4.6 mph - N/A   Overcast
4:35 PM 37.4 °F 33.8 °F 28.4 °F 70% 29.85 in 10.0 mi ESE 4.6 mph - N/A   Overcast
4:55 PM 39.2 °F 35.9 °F 30.2 °F 70% 29.84 in 10.0 mi SE 4.6 mph - N/A   Overcast
5:15 PM 39.2 °F 34.2 °F 30.2 °F 70% 29.82 in 10.0 mi SE 6.9 mph - N/A   Overcast
5:35 PM 39.2 °F 34.2 °F 30.2 °F 70% 29.82 in 10.0 mi SSE 6.9 mph - N/A   Overcast
5:55 PM 39.2 °F 34.2 °F 32.0 °F 75% 29.81 in 10.0 mi South 6.9 mph - N/A   Overcast
6:15 PM 39.2 °F 35.9 °F 33.8 °F 81% 29.80 in 10.0 mi SSE 4.6 mph - N/A   Overcast
7:35 PM 39.2 °F - 33.8 °F 81% 29.74 in 5.0 mi Calm Calm - 0.02 in   Overcast
7:55 PM 39.2 °F 35.9 °F 33.8 °F 81% 29.73 in 5.0 mi SE 4.6 mph - 0.03 in   Overcast
8:15 PM 39.2 °F 33.6 °F 35.6 °F 87% 29.71 in 5.0 mi SE 8.1 mph - 0.02 in   Overcast
8:35 PM 39.2 °F 34.2 °F 37.4 °F 93% 29.69 in 5.0 mi SSE 6.9 mph - 0.04 in   Overcast
8:55 PM 39.2 °F 34.2 °F 39.2 °F 100% 29.68 in 6.0 mi SE 6.9 mph - 0.08 in   Overcast
9:15 PM 39.2 °F 33.6 °F 39.2 °F 100% 29.65 in 8.0 mi SE 8.1 mph - 0.04 in   Overcast
9:55 PM 41.0 °F 37.1 °F 37.4 °F 87% 29.58 in 6.0 mi SE 5.8 mph - 0.07 in   Overcast
10:35 PM 39.2 °F 33.6 °F 37.4 °F 93% 29.59 in 7.0 mi WSW 8.1 mph - 0.06 in   Overcast
10:55 PM 39.2 °F 35.0 °F 35.6 °F 87% 29.59 in 4.0 mi SSW 5.8 mph - 0.10 in   Overcast
11:15 PM 39.2 °F 35.0 °F 37.4 °F 93% 29.58 in 10.0 mi SSW 5.8 mph - 0.03 in   Overcast
11:35 PM 39.2 °F - 37.4 °F 93% 29.55 in 9.0 mi Calm Calm - 0.05 in   Mostly Cloudy
11:55 PM 37.4 °F - 35.6 °F 93% 29.52 in 0.8 mi Calm Calm - 0.06 in   Overcast